GW2323 Weather Reports


Display with metric or nautical units.
time (UTC)temp
F
wind
direction
speed
MPH
gust
MPH
rain 1hr
in
rain 24hr
in
rain mn
in
humidity
%
barometer
mb
20260505025026 71 266 6.0 15.0 0.00 0.00 0.00 56 1031.3
20260505024525 72 301 6.0 15.0 0.00 0.00 0.00 56 1031.3
20260505024025 72 278 6.0 12.0 0.00 0.00 0.00 55 1031.3
20260505023525 72 309 5.0 12.0 0.00 0.00 0.00 55 1031.3
20260505023025 72 235 5.0 11.0 0.00 0.00 0.00 55 1031.3
20260505022525 72 286 5.0 11.0 0.00 0.00 0.00 54 1031.3
20260505022024 73 207 4.0 11.0 0.00 0.00 0.00 54 1031.3
20260505021525 73 267 4.0 15.0 0.00 0.00 0.00 54 1031.3
20260505021024 73 323 4.0 12.0 0.00 0.00 0.00 53 1031.3
20260505020524 73 240 3.0 9.0 0.00 0.00 0.00 53 1031.3
20260505020024 73 244 3.0 9.0 0.00 0.00 0.00 53 1031.3
20260505015524 73 286 3.0 6.0 0.00 0.00 0.00 52 1031.3
20260505015024 73 266 1.0 6.0 0.00 0.00 0.00 52 1031.3
20260505014524 74 293 2.0 7.0 0.00 0.00 0.00 51 1031.3
20260505014026 74 278 2.0 8.0 0.00 0.00 0.00 51 1031.3
20260505013523 74 256 4.0 11.0 0.00 0.00 0.00 51 1031.3
20260505013023 74 289 5.0 11.0 0.00 0.00 0.00 51 1031.3
20260505012523 74 250 4.0 9.0 0.00 0.00 0.00 51 1031.3
20260505012023 74 297 2.0 9.0 0.00 0.00 0.00 51 1031.3
20260505011522 75 245 4.0 9.0 0.00 0.00 0.00 50 1031.3
20260505011023 75 261 4.0 9.0 0.00 0.00 0.00 50 1031.3
20260505010523 75 305 4.0 8.0 0.00 0.00 0.00 49 1031.3
20260505010023 75 250 4.0 11.0 0.00 0.00 0.00 49 1031.3
20260505005523 75 264 6.0 11.0 0.00 0.00 0.00 49 1031.3
20260505005022 75 341 3.0 15.0 0.00 0.00 0.00 48 1031.3
20260505004521 75 269 6.0 11.0 0.00 0.00 0.00 48 1031.3
20260505004022 76 273 4.0 11.0 0.00 0.00 0.00 49 1031.3
20260505003523 76 248 2.0 8.0 0.00 0.00 0.00 49 1031.3
20260505003023 76 274 3.0 9.0 0.00 0.00 0.00 48 1031.3
20260505002521 76 292 2.0 10.0 0.00 0.00 0.00 48 1031.3
20260505002021 77 278 4.0 14.0 0.00 0.00 0.00 47 1031.3
20260505001521 77 262 5.0 14.0 0.00 0.00 0.00 47 1031.3
20260505001020 77 280 3.0 12.0 0.00 0.00 0.00 46 1031.3
20260505000521 77 277 5.0 16.0 0.00 0.00 0.00 46 1031.3
20260505000021 77 341 4.0 16.0 0.00 0.00 0.00 45 1031.3
20260504235521 78 314 5.0 16.0 0.00 0.00 0.00 44 1031.3
20260504235024 78 297 7.0 16.0 0.00 0.00 0.00 43 1031.3
20260504234522 78 291 9.0 18.0 0.00 0.00 0.00 43 1031.3
20260504234020 78 300 9.0 20.0 0.00 0.00 0.00 42 1031.3
20260504233520 78 309 8.0 20.0 0.00 0.00 0.00 43 1031.3
20260504233019 78 297 9.0 19.0 0.00 0.00 0.00 43 1031.3
20260504232520 78 314 8.0 22.0 0.00 0.00 0.00 43 1031.3
20260504232019 79 307 11.0 22.0 0.00 0.00 0.00 43 1031.3
20260504231519 79 322 10.0 21.0 0.00 0.00 0.00 42 1031.3
20260504231019 79 333 7.0 17.0 0.00 0.00 0.00 42 1031.3
20260504230519 79 309 9.0 20.0 0.00 0.00 0.00 42 1031.3
20260504230020 79 296 10.0 20.0 0.00 0.00 0.00 41 1031.3
20260504225521 80 276 9.0 23.0 0.00 0.00 0.00 41 1031.3
20260504225020 80 281 11.0 28.0 0.00 0.00 0.00 42 1031.3
20260504224517 80 296 12.0 28.0 0.00 0.00 0.00 40 1031.3
20260504224020 80 323 8.0 23.0 0.00 0.00 0.00 41 1031.3
20260504223518 80 281 12.0 22.0 0.00 0.00 0.00 41 1031.3
20260504223018 80 268 7.0 24.0 0.00 0.00 0.00 41 1031.3
20260504222517 80 322 7.0 24.0 0.00 0.00 0.00 41 1031.3
20260504222017 80 297 10.0 23.0 0.00 0.00 0.00 42 1031.3
20260504221517 80 298 11.0 24.0 0.00 0.00 0.00 41 1031.3
20260504221017 80 281 14.0 24.0 0.00 0.00 0.00 41 1031.3
20260504220520 80 326 10.0 22.0 0.00 0.00 0.00 41 1031.3
20260504220017 81 296 10.0 20.0 0.00 0.00 0.00 41 1031.3
20260504215517 81 311 7.0 18.0 0.00 0.00 0.00 41 1031.3
20260504215016 80 314 7.0 21.0 0.00 0.00 0.00 41 1031.3
20260504214516 81 309 12.0 23.0 0.00 0.00 0.00 41 1031.3
20260504214015 80 300 9.0 23.0 0.00 0.00 0.00 42 1031.3
20260504213515 80 276 5.0 21.0 0.00 0.00 0.00 43 1031.3
20260504213018 80 292 10.0 24.0 0.00 0.00 0.00 42 1031.3
20260504212518 80 306 9.0 24.0 0.00 0.00 0.00 43 1031.3
20260504212015 80 348 11.0 22.0 0.00 0.00 0.00 43 1031.3
20260504211514 79 284 10.0 25.0 0.00 0.00 0.00 42 1031.3
20260504211014 79 278 10.0 26.0 0.00 0.00 0.00 43 1031.3
20260504210514 79 333 10.0 19.0 0.00 0.00 0.00 44 1031.3
20260504210014 79 297 6.0 16.0 0.00 0.00 0.00 44 1031.3
20260504205514 79 353 8.0 22.0 0.00 0.00 0.00 43 1031.3
20260504205013 79 338 4.0 22.0 0.00 0.00 0.00 44 1031.3
20260504204513 80 255 7.0 18.0 0.00 0.00 0.00 43 1031.3
20260504204016 80 302 7.0 18.0 0.00 0.00 0.00 43 1031.3
20260504203513 79 307 8.0 23.0 0.00 0.00 0.00 43 1031.3
20260504203017 79 264 9.0 23.0 0.00 0.00 0.00 44 1031.3
20260504202511 79 276 6.0 19.0 0.00 0.00 0.00 45 1031.3
20260504202010 79 344 8.0 24.0 0.00 0.00 0.00 45 1031.3
20260504201510 79 312 10.0 24.0 0.00 0.00 0.00 44 1031.3
20260504201018 79 285 10.0 19.0 0.00 0.00 0.00 46 1031.3
20260504200510 78 244 6.0 19.0 0.00 0.00 0.00 48 1031.3
20260504200011 78 309 6.0 21.0 0.00 0.00 0.00 47 1031.3
20260504195509 78 269 8.0 21.0 0.00 0.00 0.00 47 1031.3
20260504195013 78 280 6.0 17.0 0.00 0.00 0.00 47 1031.3
20260504194509 77 261 11.0 17.0 0.00 0.00 0.00 46 1031.3
20260504194010 77 271 6.0 17.0 0.00 0.00 0.00 47 1031.3
20260504193512 76 293 4.0 13.0 0.00 0.00 0.00 47 1031.3
20260504193015 76 293 6.0 13.0 0.00 0.00 0.00 47 1031.3
20260504192509 76 256 6.0 12.0 0.00 0.00 0.00 47 1031.3
20260504192008 76 271 5.0 15.0 0.00 0.00 0.00 47 1031.3
20260504191521 76 297 4.0 18.0 0.00 0.00 0.00 46 1031.3
20260504191010 77 308 8.0 18.0 0.00 0.00 0.00 46 1031.3
20260504190508 77 206 8.0 22.0 0.00 0.00 0.00 45 1031.3
20260504190008 77 293 8.0 22.0 0.00 0.00 0.00 46 1031.3
20260504185509 77 289 8.0 19.0 0.00 0.00 0.00 46 1031.3
20260504185007 78 328 9.0 20.0 0.00 0.00 0.00 45 1031.3
20260504184507 78 326 10.0 22.0 0.00 0.00 0.00 44 1031.3
20260504184007 78 321 10.0 24.0 0.00 0.00 0.00 44 1031.3
20260504183507 78 281 14.0 27.0 0.00 0.00 0.00 43 1031.3
20260504183007 78 293 12.0 22.0 0.00 0.00 0.00 44 1031.3
20260504182514 79 289 7.0 21.0 0.00 0.00 0.00 44 1031.3
20260504182009 79 294 10.0 21.0 0.00 0.00 0.00 43 1031.3
20260504181505 79 311 10.0 19.0 0.00 0.00 0.00 45 1031.3
20260504181005 78 285 7.0 16.0 0.00 0.00 0.00 44 1031.3
20260504180505 78 330 6.0 19.0 0.00 0.00 0.00 44 1031.3
20260504180007 78 315 8.0 19.0 0.00 0.00 0.00 45 1031.3
20260504175505 78 300 9.0 18.0 0.00 0.00 0.00 44 1031.3
20260504175004 78 306 3.0 20.0 0.00 0.00 0.00 46 1031.3
20260504174503 78 297 8.0 18.0 0.00 0.00 0.00 45 1031.3
20260504174002 78 302 10.0 18.0 0.00 0.00 0.00 44 1031.3
20260504173501 77 276 11.0 26.0 0.00 0.00 0.00 45 1031.3
20260504173001 77 311 13.0 26.0 0.00 0.00 0.00 44 1031.3
20260504172501 77 293 7.0 26.0 0.00 0.00 0.00 45 1031.3
20260504172001 77 283 16.0 26.0 0.00 0.00 0.00 44 1031.3
20260504171501 77 269 10.0 23.0 0.00 0.00 0.00 44 1031.3
20260504171100 77 302 7.0 23.0 0.00 0.00 0.00 45 1031.3
20260504170601 77 290 10.0 26.0 0.00 0.00 0.00 45 1031.3
20260504151041 71 302 11.0 26.0 0.00 0.00 0.00 50 1031.3
20260504150540 71 281 10.0 21.0 0.00 0.00 0.00 50 1031.3
20260504141030 68 283 7.0 21.0 0.00 0.00 0.00 55 1031.3
20260504140529 67 311 9.0 21.0 0.00 0.00 0.00 55 1031.3
20260504130525 64 290 7.0 14.0 0.00 0.00 0.00 58 1031.3
20260504110516 63 290 5.0 15.0 0.00 0.00 0.00 57 1031.3
20260504100512 64 284 4.0 12.0 0.00 0.00 0.00 57 1031.3
20260504081601 64 287 6.0 14.0 0.00 0.00 0.00 57 1031.3
20260504081057 64 304 4.0 13.0 0.00 0.00 0.00 57 1031.3
20260504080556 64 314 6.0 13.0 0.00 0.00 0.00 56 1031.3
20260504050533 67 277 5.0 12.0 0.00 0.00 0.00 49 1031.3
20260504045537 67 248 3.0 11.0 0.00 0.00 0.00 49 1031.3
20260504045035 67 293 4.0 12.0 0.00 0.00 0.00 49 1031.3
20260504044533 67 278 4.0 12.0 0.00 0.00 0.00 49 1031.3
20260504044035 67 248 4.0 12.0 0.00 0.00 0.00 49 1031.3
20260504043532 67 274 3.0 12.0 0.00 0.00 0.00 49 1031.3
20260504043032 67 298 3.0 11.0 0.00 0.00 0.00 49 1031.3
20260504042532 67 276 3.0 10.0 0.00 0.00 0.00 49 1031.3
20260504042031 67 260 2.0 10.0 0.00 0.00 0.00 49 1031.3
20260504041531 67 304 4.0 10.0 0.00 0.00 0.00 48 1031.3
20260504041031 67 276 3.0 10.0 0.00 0.00 0.00 48 1031.3
20260504040531 68 266 5.0 15.0 0.00 0.00 0.00 47 1031.3
20260504040031 68 294 7.0 15.0 0.00 0.00 0.00 47 1031.3
20260504035531 68 270 5.0 13.0 0.00 0.00 0.00 47 1031.3
20260504035031 68 255 5.0 14.0 0.00 0.00 0.00 47 1031.3
20260504034530 68 284 5.0 14.0 0.00 0.00 0.00 47 1031.3
20260504034033 68 258 4.0 11.0 0.00 0.00 0.00 47 1031.3
20260504033530 68 278 6.0 12.0 0.00 0.00 0.00 47 1031.3
20260504033034 68 217 6.0 12.0 0.00 0.00 0.00 47 1031.3
20260504032530 68 243 5.0 12.0 0.00 0.00 0.00 47 1031.3
20260504032030 68 259 4.0 12.0 0.00 0.00 0.00 47 1031.3
20260504031530 68 285 6.0 15.0 0.00 0.00 0.00 47 1031.3
20260504031032 68 271 5.0 15.0 0.00 0.00 0.00 46 1031.3
20260504030529 68 290 4.0 14.0 0.00 0.00 0.00 46 1031.3
20260504030029 68 287 5.0 15.0 0.00 0.00 0.00 46 1031.3
20260504025529 69 231 6.0 15.0 0.00 0.00 0.00 46 1031.3